Flag for Mexico Weather past 2 weeks in Ojinaga, Chihuahua, Mexico

Now
81 °F

Sunny.


Feels Like: 80 °F
Forecast: 73 / 100 °F
Wind: 6 mph from South

Location: Marfa Municipal Airport

Current Time: Jul 29, 2014 at 11:17:43 AM

Latest Report: Jul 29, 2014 at 10:55 AM


Visibility: 10 mi

Pressure: 30.31 "Hg

Humidity: 39%

Dew point: 54 °F

Location of OjinagaLocation

Historic Weather in Ojinaga — Graph

°F

Ojinaga temperature yesterday

Maximum temperature yesterday: 90 °F (at 3:55 PM)
Minimum temperature yesterday: 64 °F (at 9:15 AM)
Average temperature yesterday: 74 °F

Past Weeks' High & Low Weather Summary

 TemperatureHumidityPressure
High93 °F (Jul 27, 1:55 PM)100% (Jul 17, 10:55 PM)30.37 "Hg (Jul 17, 10:55 PM)
Low57 °F (Jul 25, 6:35 AM)20% (Jul 25, 3:35 PM)30.02 "Hg (Jul 16, 5:55 PM)
Average75 °F59%30.20 "Hg
* Reported Jul 14 10:15 AM — Jul 29 10:15 AM, Ojinaga, Weather by CustomWeather, © 2014

Note: Actual official high and low records may vary slightly from our data, if they occured in-between our weather recording intervals... More about our weather records

Advertising

Ojinaga weather history for previous 24 hours

 ConditionsComfort  
Time TempWeatherWind HumidityBarometerVisibility
10:15 AM
Jul 29
81 °FSunny.7 mph42%30.31 "Hg10 mi
9:55 AM79 °FSunny.7 mph45%30.31 "Hg10 mi
9:35 AM79 °FSunny.8 mph45%30.31 "Hg10 mi
9:15 AM75 °FSunny.7 mph50%30.31 "Hg10 mi
8:55 AM75 °FSunny.3 mph50%30.31 "Hg10 mi
8:35 AM73 °FSunny.No wind53%30.31 "Hg10 mi
8:15 AM72 °FSunny.3 mph57%30.31 "Hg10 mi
7:55 AM70 °FSunny.6 mph64%30.31 "Hg10 mi
7:35 AM66 °FSunny.8 mph78%30.30 "Hg10 mi
6:55 AM61 °FClear.6 mph88%30.29 "Hg10 mi
6:35 AM61 °FClear.6 mph83%30.29 "Hg10 mi
6:15 AM57 °FClear.5 mph94%30.29 "Hg10 mi
5:55 AM61 °FClear.No wind83%30.29 "Hg10 mi
5:35 AM59 °FClear.No wind88%30.29 "Hg10 mi
5:15 AM61 °FClear.3 mph83%30.29 "Hg10 mi
4:55 AM64 °FClear.3 mph73%30.28 "Hg10 mi
4:35 AM66 °FClear.5 mph73%30.28 "Hg10 mi
4:15 AM63 °FClear.No wind77%30.28 "Hg10 mi
3:55 AM63 °FClear.3 mph77%30.28 "Hg10 mi
3:35 AM63 °FClear.8 mph83%30.27 "Hg10 mi
3:15 AM63 °FClear.8 mph77%30.28 "Hg10 mi
2:55 AM61 °FClear.9 mph83%30.28 "Hg10 mi
2:35 AM61 °FClear.5 mph83%30.28 "Hg10 mi
2:15 AM61 °FClear.3 mph83%30.28 "Hg10 mi
1:55 AM61 °FClear.3 mph83%30.29 "Hg10 mi
1:35 AM61 °FClear.5 mph83%30.29 "Hg10 mi
1:15 AM63 °FClear.6 mph73%30.29 "Hg10 mi
12:55 AM64 °FClear.9 mph68%30.29 "Hg10 mi
12:35 AM64 °FClear.8 mph68%30.29 "Hg10 mi
12:15 AM64 °FClear.8 mph68%30.29 "Hg10 mi
11:55 PM
Jul 28
66 °FClear.7 mph64%30.30 "Hg10 mi
11:35 PM66 °FClear.9 mph64%30.30 "Hg10 mi
11:15 PM66 °FClear.9 mph68%30.30 "Hg10 mi
10:55 PM66 °FClear.5 mph68%30.30 "Hg10 mi
10:35 PM66 °FClear.7 mph68%30.30 "Hg10 mi
10:15 PM70 °FClear.7 mph60%30.29 "Hg10 mi
9:55 PM72 °FClear.8 mph53%30.29 "Hg10 mi
9:35 PM72 °FClear.8 mph53%30.28 "Hg10 mi
8:55 PM72 °FClear.8 mph57%30.26 "Hg10 mi
8:35 PM73 °FSunny.8 mph53%30.25 "Hg10 mi
8:15 PM75 °FSunny.8 mph50%30.25 "Hg10 mi
7:55 PM75 °FPassing clouds.9 mph54%30.25 "Hg10 mi
7:35 PM79 °FPassing clouds.7 mph45%30.24 "Hg10 mi
7:15 PM79 °FPassing clouds.9 mph45%30.24 "Hg10 mi
6:55 PM81 °FOvercast.10 mph45%30.24 "Hg10 mi
6:35 PM81 °FPartly sunny.6 mph45%30.24 "Hg10 mi
6:15 PM82 °FMore clouds than sun.8 mph42%30.24 "Hg10 mi
5:55 PM82 °FPartly sunny.7 mph42%30.25 "Hg10 mi
5:35 PM82 °FPassing clouds.10 mph42%30.25 "Hg10 mi
5:15 PM82 °FScattered clouds.10 mph42%30.25 "Hg10 mi
4:55 PM82 °FScattered clouds.13 mph42%30.25 "Hg10 mi
4:35 PM82 °FBroken clouds.16 mph42%30.25 "Hg10 mi
4:15 PM90 °FScattered clouds.20 mph33%30.25 "Hg10 mi
3:55 PM90 °FPassing clouds.14 mph31%30.25 "Hg10 mi
2:55 PM88 °FScattered clouds.13 mph35%30.29 "Hg10 mi
2:35 PM88 °FPassing clouds.5 mph35%30.30 "Hg10 mi
2:15 PM86 °FSunny.12 mph43%30.30 "Hg10 mi
1:55 PM84 °FSunny.8 mph43%30.31 "Hg10 mi
1:35 PM84 °FSunny.9 mph45%30.31 "Hg10 mi
1:15 PM82 °FSunny.12 mph48%30.32 "Hg10 mi
12:55 PM82 °FSunny.14 mph48%30.33 "Hg10 mi
12:35 PM81 °FSunny.16 mph54%30.34 "Hg10 mi
12:15 PM77 °FSunny.10 mph61%30.34 "Hg10 mi
11:55 AM73 °FSunny.6 mph69%30.35 "Hg10 mi
11:35 AM73 °FSunny.10 mph69%30.36 "Hg10 mi
11:15 AM72 °FSunny.9 mph73%30.36 "Hg10 mi
Weather by CustomWeather, © 2014

See weather overviewHow to use our weather pages